DW5542 Weather Reports


Display with metric or nautical units.
time (UTC)temp
F
wind
direction
speed
MPH
gust
MPH
rain 1hr
in
rain 24hr
in
rain mn
in
humidity
%
barometer
mb
20260906083046 86 328 0.0 0.0 0.00 0.00 0.00 40 1018.8
20260906081538 85 326 0.0 0.0 0.00 0.00 0.00 41 1018.7
20260906080039 84 326 0.0 0.0 0.00 0.00 0.00 45 1018.6
20260906074530 81 326 0.0 0.0 0.00 0.00 0.00 48 1018.5
20260906073026 78 326 0.0 0.0 0.00 0.00 0.00 51 1018.5
20260906071518 77 333 0.0 0.0 0.00 0.00 0.00 51 1018.5
20260906070017 75 333 0.0 0.0 0.00 0.00 0.00 52 1018.4
20260906064517 74 333 0.0 0.0 0.00 0.00 0.00 54 1018.5
20260906063018 72 335 0.0 0.0 0.00 0.00 0.00 56 1018.4
20260906061513 71 325 0.0 0.0 0.00 0.00 0.00 60 1018.3
20260906060011 71 16 0.0 0.0 0.00 0.00 0.00 61 1018.2
20260906054507 0 0.0 0.0 0.00 0.00 0.00 1018.1
20260906053002 0 0.0 0.0 0.00 0.00 0.00 1017.8
20260906051606 0 0.0 0.0 0.00 0.00 0.00 1017.8
20260906050103 0 0.0 0.0 0.00 0.00 0.00 1017.7
20260906044556 0 0.0 0.0 0.00 0.00 0.00 1017.7
20260906043045 0 0.0 0.0 0.00 0.00 0.00 1017.8
20260906041541 0 0.0 0.0 0.00 0.00 0.00 1017.9
20260906040036 0 0.0 0.0 0.00 0.00 0.00 1017.8
20260906034532 0 0.0 0.0 0.00 0.00 0.00 1017.8
20260906033038 0 0.0 0.0 0.00 0.00 0.00 1017.9
20260906031529 0 0.0 0.0 0.00 0.00 0.00 1017.9
20260906030021 72 6 0.0 0.0 0.00 0.00 0.00 62 1018.0
20260906024533 72 6 0.0 0.0 0.00 0.00 0.00 61 1017.9
20260906023022 72 6 0.0 0.0 0.00 0.00 0.00 61 1017.9
20260906021517 73 6 0.0 0.0 0.00 0.00 0.00 59 1018.1
20260906020014 73 6 0.0 0.0 0.00 0.00 0.00 61 1018.2
20260906014517 73 6 0.0 0.0 0.00 0.00 0.00 60 1018.4
20260906013032 73 6 0.0 0.0 0.00 0.00 0.00 60 1018.4
20260906011509 73 6 0.0 0.0 0.00 0.00 0.00 61 1018.4
20260906010007 74 6 0.0 0.0 0.00 0.00 0.00 61 1018.5
20260906004506 74 6 0.0 0.0 0.00 0.00 0.00 60 1018.5
20260906003004 74 6 0.0 0.0 0.00 0.00 0.00 62 1018.5
20260906001503 74 6 0.0 0.0 0.00 0.00 0.00 63 1018.5
20260906000101 75 6 0.0 0.0 0.00 0.00 0.00 63 1018.5
20260905234610 75 6 0.0 0.0 0.00 0.00 0.00 62 1018.7
20260905233059 75 6 0.0 0.0 0.00 0.00 0.00 58 1018.7
20260905231557 75 6 0.0 0.0 0.00 0.00 0.00 59 1018.7
20260905230054 75 8 0.0 0.0 0.00 0.00 0.00 60 1018.8
20260905224600 75 8 0.0 0.0 0.00 0.00 0.00 61 1018.9
20260905223051 76 8 0.0 0.0 0.00 0.00 0.00 62 1018.9
20260905221608 76 6 0.0 0.0 0.00 0.00 0.00 62 1018.9
20260905220046 77 338 0.0 0.0 0.00 0.00 0.00 61 1019.0
20260905214545 77 39 0.0 0.0 0.00 0.00 0.00 62 1019.0
20260905213057 78 15 0.0 0.0 0.00 0.00 0.00 65 1018.9
20260905211546 78 29 0.0 0.0 0.00 0.00 0.00 66 1019.0
20260905210051 78 23 0.0 0.0 0.00 0.00 0.00 66 1019.0
20260905204545 78 27 0.0 0.0 0.00 0.00 0.00 67 1019.2
20260905203043 78 354 0.0 0.0 0.00 0.00 0.00 69 1019.2
20260905201548 79 33 0.0 0.0 0.00 0.00 0.00 69 1019.1
20260905200044 79 53 0.0 0.0 0.00 0.00 0.00 70 1019.1
20260905194537 80 37 0.0 0.0 0.00 0.00 0.00 72 1019.0
20260905193040 81 110 0.0 0.0 0.00 0.00 0.00 71 1019.0
20260905191538 81 110 0.0 0.0 0.00 0.00 0.00 70 1018.8
20260905190037 82 110 0.0 0.0 0.00 0.00 0.00 72 1018.6
20260905184542 82 110 0.0 0.0 0.00 0.00 0.00 74 1018.5
20260905183036 82 110 0.0 0.0 0.00 0.00 0.00 76 1018.4
20260905181535 83 108 0.0 0.0 0.00 0.00 0.00 73 1018.4
20260905180039 83 143 0.0 0.0 0.00 0.00 0.00 71 1018.4
20260905174534 83 119 0.0 0.0 0.00 0.00 0.00 71 1018.3
20260905173033 84 145 0.0 0.0 0.00 0.00 0.00 69 1018.3
20260905171533 85 102 0.0 0.0 0.00 0.00 0.00 68 1018.2
20260905170034 85 260 0.0 0.0 0.00 0.00 0.00 66 1018.2
20260905164531 86 162 0.0 0.0 0.00 0.00 0.00 65 1018.1
20260905163034 87 172 0.0 0.0 0.00 0.00 0.00 63 1018.0
20260905161529 87 151 0.0 3.0 0.00 0.00 0.00 64 1018.0
20260905160029 87 153 0.0 4.0 0.00 0.00 0.00 61 1018.1
20260905154528 88 159 0.0 0.0 0.00 0.00 0.00 58 1018.0
20260905153026 88 204 0.0 0.0 0.00 0.00 0.00 52 1017.9
20260905151530 88 154 0.0 1.0 0.00 0.00 0.00 59 1018.0
20260905150026 88 146 0.0 4.0 0.00 0.00 0.00 61 1018.1
20260905144526 88 138 0.0 7.0 0.00 0.00 0.00 63 1018.1
20260905143026 89 143 0.0 6.0 0.00 0.00 0.00 62 1018.2
20260905141532 89 101 1.0 8.0 0.00 0.00 0.00 61 1018.3
20260905140024 88 143 0.0 4.0 0.00 0.00 0.00 61 1018.5
20260905134524 88 158 0.0 8.0 0.00 0.00 0.00 62 1018.6
20260905133022 88 148 0.0 4.0 0.00 0.00 0.00 63 1018.6
20260905131521 89 169 0.0 7.0 0.00 0.00 0.00 64 1018.7
20260905130021 89 238 0.0 2.0 0.00 0.00 0.00 64 1018.8
20260905124523 89 219 0.0 2.0 0.00 0.00 0.00 64 1018.8
20260905123021 89 165 0.0 2.0 0.00 0.00 0.00 65 1019.0
20260905121525 88 211 0.0 1.0 0.00 0.00 0.00 65 1019.0
20260905120018 88 149 0.0 4.0 0.00 0.00 0.00 66 1019.0
20260905114517 89 180 0.0 2.0 0.00 0.00 0.00 65 1019.0
20260905113016 90 148 0.0 9.0 0.00 0.00 0.00 63 1018.8
20260905111514 90 150 0.0 1.0 0.00 0.00 0.00 61 1018.7
20260905110013 91 143 0.0 6.0 0.00 0.00 0.00 60 1018.7
20260905104512 91 249 0.0 1.0 0.00 0.00 0.00 59 1018.7
20260905103011 91 159 0.0 3.0 0.00 0.00 0.00 58 1018.8
20260905101508 92 158 0.0 0.0 0.00 0.00 0.00 47 1018.7
20260905100004 91 285 0.0 1.0 0.00 0.00 0.00 48 1018.6
20260905094601 90 249 0.0 0.0 0.00 0.00 0.00 49 1018.5
20260905093055 88 328 0.0 4.0 0.00 0.00 0.00 50 1018.5
20260905091607 87 245 0.0 2.0 0.00 0.00 0.00 53 1018.4
20260905090045 85 312 0.0 5.0 0.00 0.00 0.00 60 1018.3
20260905084604 84 310 1.0 8.0 0.00 0.00 0.00 63 1018.2